Temperature
-9 -8 -8 -8 -7 -7 -7 -6 -5 -4 -3 -3 -1 1 3 5 6 8 9 9 10 10 11 11 11 12 12 13 13 14 14 14 14 14 14 14 14 14
-9 -8 -8 -8 -7 -7 -6 -6 -5 -4 -4 -3 -2 -1 2 4 5 7 8 9 9 10 11 11 11 11 12 12 13 13 13 13 14 14 14 14 14 14
-9 -8 -8 -8 -7 -7 -6 -6 -5 -5 -4 -3 -2 -1 0 3 4 5 6 8 9 9 10 11 11 11 11 12 12 12 13 13 13 13 13 13 13 13
-9 -8 -8 -7 -7 -7 -6 -6 -5 -4 -4 -3 -2 -2 -0 1 2 3 5 7 8 9 9 10 11 11 11 11 12 12 12 12 13 13 13 13 13 13
-9 -8 -8 -8 -7 -7 -6 -6 -5 -4 -4 -3 -3 -2 -1 0 1 2 3 5 7 8 9 9 10 11 11 11 12 12 12 12 12 12 12 12 12 12
-9 -9 -8 -8 -8 -7 -7 -6 -6 -5 -4 -3 -3 -2 -1 -0 0 1 2 4 6 7 8 9 10 10 11 11 11 12 12 12 12 12 12 12 12 11
-9 -9 -9 -9 -9 -8 -8 -7 -7 -6 -5 -4 -3 -2 -1 -0 0 1 2 4 5 7 8 9 9 10 11 11 11 11 12 12 12 12 12 12 11 11
-9 -9 -9 -9 -9 -9 -8 -8 -8 -7 -7 -5 -4 -3 -2 -1 0 1 2 3 5 6 7 8 8 9 10 11 11 11 12 12 12 12 12 12 11 11
-10 -10 -10 -10 -10 -9 -9 -8 -7 -7 -7 -7 -6 -5 -3 -2 -1 1 2 3 4 6 7 7 7 8 9 10 11 11 11 12 12 11 11 11 10 10
-10 -11 -11 -10 -10 -10 -9 -9 -8 -8 -7 -7 -7 -6 -5 -4 -2 0 2 3 4 5 6 7 7 7 8 8 9 10 11 11 11 11 10 10 9 9
-11 -11 -11 -11 -11 -11 -10 -9 -9 -8 -8 -7 -7 -7 -5 -4 -2 -1 1 2 4 4 5 6 6 7 7 7 8 8 9 9 9 9 9 9 8 8
-12 -12 -12 -12 -11 -11 -11 -10 -10 -9 -8 -7 -7 -6 -5 -4 -3 -1 0 2 3 4 5 5 6 6 5 6 6 7 8 8 8 8 8 7 7 6
-13 -13 -13 -13 -12 -12 -12 -11 -11 -10 -9 -8 -7 -7 -6 -4 -3 -2 -0 1 3 4 4 5 5 6 5 4 4 5 5 5 6 5 5 5 5 5
-14 -14 -14 -14 -13 -13 -13 -12 -11 -10 -10 -9 -8 -8 -7 -5 -4 -3 -1 0 2 3 4 5 5 6 5 4 3 3 3 3 3 3 2 2 2 2
-14 -14 -14 -14 -13 -13 -13 -12 -11 -11 -11 -10 -10 -10 -9 -8 -5 -3 -2 -1 1 2 3 4 5 5 6 5 3 2 2 2 2 2 2 2 2 2
-13 -14 -14 -14 -14 -14 -13 -13 -12 -12 -12 -12 -11 -10 -9 -8 -6 -4 -3 -1 0 1 2 3 3 4 4 4 4 2 2 1 1 1 1 1 1 1
-13 -13 -14 -14 -14 -14 -14 -14 -13 -13 -12 -12 -11 -11 -10 -9 -8 -7 -4 -2 -1 -0 0 1 1 2 2 2 2 2 2 1 1 1 1 0 0 0
-14 -14 -14 -14 -15 -15 -15 -14 -14 -14 -13 -13 -12 -12 -11 -10 -9 -8 -7 -5 -4 -3 -2 -1 -0 1 1 -0 -0 0 1 1 0 0 0 0 0 -0
-14 -14 -14 -14 -15 -15 -15 -15 -15 -14 -14 -13 -13 -12 -12 -11 -10 -10 -9 -8 -6 -5 -4 -3 -2 -0 -0 -3 -4 -1 -0 0 -0 -0 -0 0 0 0
-14 -14 -14 -14 -15 -15 -15 -15 -15 -15 -14 -14 -13 -13 -12 -12 -11 -11 -10 -9 -8 -7 -5 -4 -3 -2 -1 -3 -4 -4 -2 -1 -0 -0 -1 -1 -0 -1
-14 -14 -14 -14 -14 -15 -15 -15 -15 -15 -15 -14 -14 -14 -13 -13 -12 -12 -11 -10 -9 -8 -7 -7 -6 -4 -3 -2 -3 -5 -5 -3 -2 -1 -1 -1 -1 -1
-13 -14 -14 -14 -14 -14 -15 -15 -15 -15 -15 -15 -14 -14 -14 -13 -13 -13 -12 -11 -11 -10 -10 -9 -8 -7 -5 -4 -5 -6 -6 -6 -5 -4 -3 -3 -2 -2
-13 -13 -13 -14 -14 -14 -14 -15 -15 -15 -15 -15 -15 -14 -14 -14 -13 -13 -13 -12 -12 -12 -11 -11 -10 -9 -8 -7 -7 -8 -8 -8 -7 -6 -5 -5 -4 -3
Wind_Speed
12 12 10 9 8 9 10 10 10 13 13 8 5 4 7 7 12 12 11 11 15 16 16 16 18 20 23 26 28 31 32 30 30 29 28 27 26 25
11 12 11 9 9 9 10 10 10 12 13 8 8 11 12 12 14 13 14 16 12 14 15 15 15 17 20 23 25 27 29 31 31 31 30 28 27 26
13 12 12 11 10 9 9 10 10 10 13 13 10 10 11 10 10 10 13 9 7 12 13 14 14 15 17 20 23 25 27 29 30 31 31 30 29 28
12 11 11 10 11 9 8 9 9 10 11 14 10 8 9 8 8 10 12 9 5 9 12 13 14 14 15 17 20 22 25 27 29 30 31 32 31 30
9 9 10 11 11 9 9 8 7 8 8 9 9 7 6 6 6 9 12 10 6 6 9 11 13 14 14 16 18 20 23 27 29 31 32 32 32 32
8 9 9 11 13 12 9 10 9 9 8 7 7 6 5 5 4 6 9 7 4 2 4 6 9 13 14 16 17 19 21 24 28 30 31 31 34 35
10 10 11 16 21 17 13 12 11 9 8 7 6 5 4 3 3 3 7 6 4 2 3 3 4 5 8 12 15 18 20 23 25 26 28 32 35 36
11 12 12 13 19 22 23 21 19 14 12 9 7 7 5 4 3 3 5 5 3 2 3 3 3 4 5 5 13 18 20 21 22 24 28 32 34 36
12 11 13 15 15 11 17 20 19 22 20 13 10 9 8 7 7 5 4 4 3 2 3 3 2 3 2 4 14 18 20 21 24 28 31 34 36 37
13 13 12 14 16 16 13 12 11 13 17 12 10 11 11 10 8 6 6 5 2 1 2 3 3 3 3 4 13 20 24 28 33 37 40 41 41 40
13 16 16 13 25 25 17 14 13 13 18 21 20 18 19 18 13 4 4 4 3 1 2 3 4 5 6 6 12 26 32 36 40 43 45 45 44 39
10 14 21 22 26 26 16 15 16 14 15 16 16 17 14 15 17 9 5 2 2 2 1 3 5 5 6 6 9 15 24 35 41 42 43 42 39 30
11 11 13 25 25 26 22 15 19 16 13 13 12 13 12 12 12 11 8 3 1 1 2 3 4 4 6 6 7 10 13 16 23 29 33 34 31 27
11 10 13 23 24 25 21 23 25 19 12 12 12 13 14 14 13 12 10 6 4 2 1 2 4 7 11 11 7 7 11 11 14 14 19 26 26 26
9 18 20 23 21 18 24 26 21 14 13 13 13 13 12 13 13 12 11 7 8 10 8 4 6 9 12 13 10 9 8 9 9 12 13 12 13 16
9 14 19 20 18 19 19 16 14 14 13 12 12 12 12 13 12 12 9 8 7 9 13 13 8 10 12 14 18 16 10 7 8 11 13 11 14 15
8 8 9 10 12 12 12 12 12 13 13 13 13 13 13 13 12 12 11 10 9 8 10 12 16 17 16 14 15 14 14 14 12 12 13 13 9 11
9 6 7 8 9 10 11 11 11 12 12 12 12 12 12 13 13 12 11 11 11 10 8 7 10 14 13 16 16 12 14 14 12 11 11 12 9 7
5 4 5 5 6 7 7 7 8 9 9 10 11 11 11 11 12 12 12 11 12 11 11 8 5 9 16 10 10 14 11 13 13 11 8 7 8 6
3 3 4 4 4 4 5 5 6 7 7 8 9 10 10 10 11 12 12 13 12 12 13 13 12 10 10 10 7 7 14 10 11 10 9 8 7 9
4 4 4 4 3 3 4 4 5 5 6 6 7 8 9 9 10 11 11 16 14 13 13 12 12 14 11 11 12 10 11 16 12 7 6 7 5 3
5 5 4 4 3 3 3 3 4 4 5 5 6 7 7 7 9 10 10 10 11 11 12 11 11 12 12 14 15 12 10 9 15 17 14 8 4 4
7 6 5 5 4 3 3 2 2 3 3 3 4 5 6 6 6 7 9 9 10 11 11 11 11 12 13 13 13 11 12 10 8 9 9 14 12 10
Wind_Direction
297 297 294 291 291 289 285 280 283 291 295 295 295 313 335 326 328 331 318 278 233 209 202 203 207 207 207 206 202 197 193 190 188 186 187 188 187 183
298 296 295 290 291 287 283 279 275 278 281 284 294 306 311 308 318 323 314 301 255 212 197 195 200 204 205 204 202 200 195 190 187 185 185 186 184 180
301 299 298 297 295 289 284 279 275 273 277 285 285 290 293 302 310 312 307 299 271 221 199 192 194 198 202 202 200 199 196 191 187 185 184 184 183 178
303 309 313 315 310 301 292 283 279 274 275 283 285 284 282 289 297 302 306 299 274 229 204 193 192 195 198 200 199 197 194 190 187 185 184 183 182 175
321 330 334 340 340 332 324 319 307 297 287 284 285 276 273 276 290 296 295 286 272 230 203 195 192 194 198 200 199 196 193 190 188 186 185 182 177 171
349 348 353 2 358 351 352 353 346 336 325 308 295 279 261 252 249 269 277 278 265 221 183 177 187 194 198 200 200 197 194 192 190 189 186 178 170 165
2 359 6 18 13 9 12 9 2 358 351 338 323 303 281 250 227 236 261 273 262 211 163 164 170 180 190 201 201 198 194 193 192 188 180 170 162 158
10 3 4 16 17 12 13 16 14 12 7 359 344 330 325 325 309 261 257 255 237 205 151 144 148 166 175 185 193 191 190 187 182 174 165 158 151 146
10 6 12 9 21 10 7 12 12 13 14 8 353 345 337 336 324 298 270 258 233 198 139 129 115 135 133 175 180 177 174 167 157 148 142 137 133 130
10 6 9 4 17 20 5 5 9 7 6 5 358 351 346 340 321 287 281 287 283 1 101 120 98 89 81 112 155 153 147 141 135 131 127 124 121 120
11 9 12 10 14 20 12 4 7 4 2 3 4 4 1 357 356 324 267 232 200 114 43 108 110 88 70 76 113 127 128 127 126 125 124 122 120 117
10 6 9 15 14 19 16 7 9 3 355 354 357 359 358 357 4 2 332 266 197 146 126 114 126 112 81 56 87 107 115 118 119 121 122 122 121 119
12 7 6 14 15 17 19 14 13 9 357 355 355 356 359 0 358 352 342 313 238 150 170 121 121 101 111 106 71 79 102 111 113 115 117 119 120 120
9 7 9 16 16 16 18 15 15 14 5 2 3 3 1 358 352 347 345 359 33 68 61 105 131 145 133 125 108 84 81 91 107 110 112 113 111 114
11 17 18 19 17 14 14 16 15 12 9 7 4 360 355 352 354 355 357 11 44 46 37 46 126 137 134 132 128 123 100 78 87 105 105 106 110 112
15 13 17 17 19 16 15 13 13 13 13 7 0 356 357 2 9 8 8 9 46 49 41 48 71 111 121 121 128 127 119 114 106 103 101 94 91 97
16 10 12 13 14 13 12 12 11 11 12 8 6 3 5 8 12 13 19 33 53 62 64 66 71 75 77 103 117 117 116 115 117 115 108 99 84 92
19 7 7 9 11 10 9 8 9 11 9 9 10 8 8 10 14 18 25 36 46 49 56 74 105 103 85 55 51 105 112 115 113 108 111 111 101 85
11 343 344 347 350 354 356 358 359 359 2 8 12 11 11 14 18 23 26 33 39 43 40 35 44 119 116 100 43 47 99 113 112 102 91 102 115 112
317 310 315 322 329 337 344 348 349 354 0 5 9 12 14 19 23 25 30 34 38 45 49 47 47 70 102 111 104 64 64 89 106 106 103 98 93 97
295 293 292 300 308 319 328 337 344 350 356 358 6 10 15 22 28 29 33 39 44 47 52 50 51 65 82 92 95 84 67 71 84 99 109 107 102 92
277 276 277 278 283 293 305 322 338 348 354 359 360 5 12 23 29 32 35 40 44 50 56 55 55 65 75 91 97 96 87 76 78 80 77 84 115 131
275 268 263 264 262 260 263 282 309 328 343 352 357 2 9 19 24 32 38 43 48 52 57 62 64 70 77 85 93 94 89 85 82 75 63 65 77 86
Height
1418 1416 1414 1411 1409 1407 1404 1403 1401 1394 1389 1388 1389 1390 1392 1395 1397 1401 1406 1412 1417 1423 1428 1434 1439 1445 1451 1458 1465 1472 1479 1485 1492 1499 1505 1511 1517 1522
1414 1412 1410 1407 1404 1401 1399 1397 1396 1394 1389 1385 1386 1386 1387 1389 1392 1395 1400 1405 1410 1416 1422 1428 1433 1439 1445 1452 1459 1466 1473 1480 1486 1493 1499 1506 1512 1518
1411 1409 1406 1403 1399 1396 1394 1392 1390 1389 1386 1382 1383 1382 1382 1384 1387 1391 1395 1399 1404 1410 1416 1421 1427 1433 1439 1446 1452 1460 1467 1473 1480 1487 1494 1501 1507 1513
1408 1406 1403 1399 1396 1392 1389 1387 1385 1384 1382 1379 1379 1380 1380 1381 1382 1386 1388 1393 1399 1404 1410 1415 1421 1426 1432 1439 1446 1454 1461 1467 1474 1481 1488 1495 1501 1509
1408 1405 1401 1397 1393 1389 1386 1383 1381 1379 1378 1376 1375 1376 1377 1378 1379 1381 1384 1389 1394 1399 1404 1410 1415 1420 1427 1433 1440 1447 1455 1462 1468 1475 1482 1489 1495 1503
1408 1405 1401 1397 1393 1389 1384 1381 1378 1375 1374 1373 1372 1373 1374 1375 1377 1379 1382 1385 1389 1395 1400 1405 1410 1416 1421 1428 1434 1441 1449 1456 1463 1470 1476 1483 1490 1497
1409 1406 1403 1399 1394 1389 1385 1380 1377 1373 1371 1369 1369 1369 1371 1373 1375 1378 1380 1381 1385 1390 1395 1400 1405 1410 1415 1421 1428 1435 1443 1450 1458 1464 1471 1478 1484 1491
1411 1408 1404 1399 1394 1389 1385 1380 1377 1373 1370 1368 1367 1367 1368 1370 1371 1374 1377 1379 1382 1386 1390 1395 1400 1406 1410 1416 1423 1430 1437 1445 1452 1459 1466 1473 1480 1486
1414 1410 1406 1402 1396 1390 1385 1380 1376 1373 1370 1368 1366 1365 1366 1367 1368 1370 1373 1376 1379 1383 1387 1392 1397 1401 1406 1412 1418 1425 1432 1439 1446 1454 1461 1469 1475 1481
1417 1414 1409 1404 1399 1392 1386 1381 1376 1372 1369 1367 1365 1364 1364 1363 1364 1366 1369 1373 1377 1380 1385 1389 1394 1398 1403 1409 1414 1420 1427 1434 1441 1448 1456 1464 1471 1477
1420 1416 1412 1407 1402 1395 1388 1382 1377 1374 1371 1367 1364 1362 1360 1360 1360 1362 1366 1369 1373 1376 1381 1386 1391 1396 1402 1407 1413 1419 1424 1431 1438 1445 1452 1459 1466 1473
1423 1418 1414 1410 1404 1398 1391 1385 1379 1375 1371 1367 1364 1360 1358 1357 1357 1358 1361 1366 1370 1374 1378 1383 1387 1392 1401 1408 1413 1419 1425 1431 1437 1443 1450 1456 1462 1469
1426 1421 1417 1412 1406 1401 1395 1389 1385 1380 1374 1369 1364 1359 1356 1354 1354 1355 1358 1362 1367 1371 1375 1379 1384 1388 1395 1406 1413 1419 1424 1430 1436 1443 1450 1457 1463 1470
1430 1426 1421 1415 1409 1403 1398 1393 1388 1383 1377 1372 1366 1360 1356 1353 1352 1353 1356 1359 1364 1369 1373 1377 1381 1386 1391 1401 1412 1420 1425 1431 1437 1443 1451 1459 1468 1475
1433 1430 1424 1418 1411 1406 1401 1396 1391 1385 1381 1375 1370 1366 1361 1357 1355 1354 1355 1358 1363 1367 1372 1376 1380 1385 1390 1395 1406 1418 1426 1434 1440 1446 1453 1462 1469 1475
1436 1432 1426 1421 1416 1410 1405 1400 1395 1391 1387 1382 1377 1373 1367 1362 1358 1357 1357 1359 1362 1366 1371 1376 1380 1385 1390 1395 1403 1415 1426 1433 1442 1449 1455 1463 1470 1478
1439 1434 1429 1423 1418 1413 1409 1404 1400 1396 1391 1387 1383 1378 1373 1368 1364 1361 1360 1361 1363 1366 1371 1375 1380 1384 1391 1397 1405 1415 1424 1433 1442 1450 1457 1463 1471 1478
1441 1437 1432 1428 1423 1419 1414 1410 1405 1401 1397 1393 1389 1385 1380 1376 1372 1369 1366 1365 1365 1368 1372 1377 1381 1385 1391 1400 1408 1415 1423 1432 1442 1450 1458 1464 1470 1477
1442 1438 1435 1431 1427 1423 1419 1415 1411 1407 1403 1399 1395 1391 1387 1384 1380 1377 1374 1372 1371 1372 1375 1379 1384 1387 1390 1400 1412 1419 1425 1433 1441 1449 1457 1465 1470 1476
1441 1439 1436 1433 1430 1426 1423 1419 1415 1412 1408 1404 1401 1397 1394 1391 1387 1384 1382 1381 1379 1379 1380 1383 1386 1390 1393 1400 1410 1420 1428 1435 1442 1450 1457 1464 1469 1475
1439 1437 1435 1433 1430 1428 1425 1422 1419 1415 1412 1409 1406 1403 1400 1398 1395 1393 1391 1390 1387 1386 1386 1388 1391 1395 1398 1404 1412 1421 1430 1437 1444 1450 1457 1463 1468 1473
1437 1434 1433 1431 1429 1427 1425 1423 1421 1418 1416 1413 1411 1408 1406 1404 1402 1400 1399 1397 1396 1395 1395 1397 1399 1402 1405 1409 1415 1424 1431 1438 1445 1451 1457 1462 1466 1470
1434 1432 1430 1428 1427 1426 1425 1423 1422 1420 1418 1416 1414 1413 1411 1409 1408 1407 1406 1405 1404 1404 1404 1405 1407 1409 1413 1417 1422 1428 1434 1441 1446 1452 1457 1462 1466 1470